Starlink 31506

operational
NORAD ID: 59259 Int'l Des: 2024-050 Owner: SPXS Country: US Constellation: starlink
LEOCIRCULAR

About Starlink 31506

Description loading...

Live Position

Loading 3D Globe...

Upcoming Passes

Altitude History

Altitude vs Time

uPlot chart will show altitude changes over time

Two-Line Element Set

1 59259U 24050F 25305.57562365 .00000705 00000-0 35945-4 0 9997
2 59259 53.1595 56.0774 0001220 80.6545 279.4594 15.30191159 90938
Epoch: Nov 1, 2025 • Age: 16 hours

Current Status

Altitude 481.0 km
Velocity 7.63 km/s
Sub-Earth Point 53.13°N, 19.25°E
Launch Date Mar 19, 2024
Age 1.6 years
Type internet

Technical Details

Classification Payload
Mass 730.00 kg
Dry Mass 700.00 kg
Total Mass 730.00 kg
Length 0.30 m
Diameter 4.10 m
Span 29.00 m
Shape Box + pan
Manufacturer SPXS
Bus Type Starlink V2M
Phase Status In Orbit
Owner/State SPXS/US

Large Constellations

Loading constellations...